North Conway, NH

8:39 AM EST on December 13, 2019 (GMT -0500)
North Conway

Weather History for KCWN - November, 2019

Change the Weather History Date:

Friday, November 15, 2019

  Actual Average (WUND) Record (WUND)
Temperature  
Mean Temperature 46 °F -  
Max Temperature 58 °F - - (-1)
Min Temperature 33 °F - - (-1)
Degree Days  
Heating Degree Days 20    
Moisture  
Dew Point 17 °F    
Average Humidity 28    
Maximum Humidity 70    
Minimum Humidity 18    
Precipitation  
Precipitation 0.00 in - - ()
Sea Level Pressure  
Sea Level Pressure 29.81 in    
Wind  
Wind Speed 1 mph (SE)    
Max Wind Speed 5 mph    
Max Gust Speed -    
Visibility 10 miles    
Events      
Averages and records for this station are not official NWS values.
T = Trace of Precipitation, MM = Missing Value Source: NWS Daily Summary

Daily Weather History Graph

Daily Weather History Graph

Search for Another Location

Airport or City:

Astronomy

Nov. 15, 2019 Rise Set
Actual Time 6:39 AM EST 4:18 PM EST
Civil Twilight 6:08 AM EST 4:49 PM EST
Nautical Twilight 5:33 AM EST 5:24 PM EST
Astronomical Twilight 4:59 AM EST 5:58 PM EST
Moon 6:47 PM EST (11/15) 9:36 AM EST (11/15)
Length of Visible Light 10h 41m
Length of Day
9h 39m
Waning Gibbous, 90% of the Moon is Illuminated
Nov 15
Waning Gibbous
Nov 19
Last Quarter
Nov 26
New
Dec 4
First Quarter
Dec 12
Full

Hourly Weather History & Observations

Time (EST) Temp. Dew Point Humidity Pressure Visibility Wind Dir Wind Speed Gust Speed Precip Events Conditions
12:58 AM 33.8 °F 25.0 °F 70% 29.95 in 10.0 mi Calm Calm - N/A   Clear
2:58 AM 37.2 °F 25.0 °F 61% 29.89 in 10.0 mi North - - N/A   Overcast
3:58 AM 43.3 °F 17.1 °F 35% 29.86 in 10.0 mi Calm Calm - N/A   Mostly Cloudy
5:58 AM 46.2 °F 14.4 °F 28% 29.83 in 10.0 mi Calm Calm - N/A   Mostly Cloudy
6:58 AM 47.7 °F 13.5 °F 25% 29.86 in 10.0 mi Calm Calm - N/A   Mostly Cloudy
8:58 AM 48.9 °F 14.4 °F 25% 29.87 in 10.0 mi Calm Calm - N/A   Overcast
10:58 AM 50.2 °F 15.1 °F 25% 29.88 in 10.0 mi Calm Calm - N/A   Mostly Cloudy
12:58 PM 57.4 °F 17.4 °F 21% 29.83 in 10.0 mi Calm Calm - N/A   Mostly Cloudy
1:58 PM 57.0 °F 15.8 °F 20% 30.15 in 10.0 mi SE 4.6 mph - N/A   Mostly Cloudy
2:58 PM 57.7 °F 15.8 °F 19% 29.78 in 10.0 mi ESE 3.5 mph - N/A   Mostly Cloudy
3:58 PM 58.1 °F 14.7 °F 18% 29.72 in 10.0 mi Calm Calm - N/A   Mostly Cloudy
4:58 PM 56.7 °F 14.4 °F 19% 29.71 in 10.0 mi Calm Calm - N/A   Mostly Cloudy
5:58 PM 53.2 °F 18.1 °F 25% 29.72 in 10.0 mi Calm Calm - N/A   Mostly Cloudy
6:58 PM 52.5 °F 19.4 °F 27% 29.72 in 10.0 mi Calm Calm - N/A   Mostly Cloudy
7:58 PM 54.9 °F 14.9 °F 21% 29.72 in 10.0 mi North 4.6 mph - N/A   Mostly Cloudy
8:58 PM 52.9 °F 15.4 °F 23% 29.71 in 10.0 mi Calm Calm - N/A   Mostly Cloudy
9:58 PM 52.5 °F 17.2 °F 25% 29.70 in 10.0 mi Calm Calm - N/A   Mostly Cloudy
10:58 PM 50.7 °F 14.0 °F 23% 29.71 in 10.0 mi South 3.5 mph - N/A   Clear
11:58 PM 50.0 °F 15.8 °F 26% 29.69 in 10.0 mi Calm Calm - N/A   Clear